#timestamp,LO_Frequency,Hit,StdDev 
1528138815.3,286047000.9,N
1528138835.1,286046996.8,Y
1528138855.8,286046995.8,P
1528138875.7,286046996.2,N
1528138895.5,286046996.4,N
1528138915.4,286046993.7,N
1528138935.2,286046993.5,N
1528138955.0,286046996.4,N
1528138955.9,286046996.4,N
1528138975.8,286046993.6,N
1528138995.6,286046995.2,N
1528139015.5,286046995.2,N
1528139035.3,286046998.0,N
1528139055.1,286046995.0,N
1528139105.9,286046997.1,E
1528139115.8,286046998.9,N
1528139135.7,286047000.5,P
1528139155.5,286047000.0,N
1528139175.3,286047000.3,N
1528139195.2,286047000.7,N
1528139215.0,286046999.3,N
1528139215.9,286046999.3,N
1528139235.8,286046999.0,N
1528139255.6,286046998.8,N
1528139275.4,286046999.0,N
1528139295.3,286046998.8,N
1528139315.1,286047001.0,N
1528139335.9,286047000.9,N
1528139355.7,286047002.3,N
1528139375.5,286047001.8,N
1528139395.4,286047002.6,N
1528139415.2,286047001.6,N
1528139435.0,286047002.4,N
1528139435.9,286047002.4,N
1528139455.8,286046999.8,N
1528139475.6,286047002.2,N
1528139495.5,286047002.7,N
1528139515.3,286047002.8,N
1528139535.1,286047000.1,N
1528139555.9,286047000.5,N
1528139575.7,286047000.3,N
1528139595.6,286047000.1,N
1528139615.4,286047000.3,N
1528139635.2,286047002.6,N
1528139655.1,286047002.1,N
1528139656.0,286047002.1,N
1528139675.8,286047002.6,N
1528139695.6,286047001.9,N
1528139715.5,286047002.8,N
1528139735.3,286047002.8,N
1528139755.2,286047004.3,Y
1528139775.9,286047000.2,P
1528139795.7,286047002.2,P
1528139815.6,286047004.2,P
1528139835.4,286047003.5,N
1528139855.2,286047001.8,N
1528139875.1,286047002.7,N
1528139876.0,286047002.7,N
1528139895.8,286047002.4,N
1528139915.7,286047002.8,N
1528139935.5,286047001.8,N
1528139955.3,286047002.0,N
1528139975.2,286047001.8,N
1528139995.0,286047002.2,N
1528139995.9,286047002.2,N
1528140015.8,286047002.7,N
1528140035.6,286047002.6,N
1528140055.4,286047001.7,N
1528140075.3,286047004.4,Y
1528140095.1,286047000.1,P
1528140115.9,286047000.1,N
1528140135.7,286047002.4,N
1528140155.5,286047002.3,N
1528140175.4,286046999.8,N
1528140195.2,286047000.4,N
1528140215.0,286047002.1,N
1528140215.9,286047002.1,N
1528140235.8,286047000.5,N
1528140255.6,286046999.8,N
1528140275.5,286047000.3,N
1528140295.3,286047000.2,N
1528140315.1,286046999.7,N
1528140335.9,286047002.8,N
1528140355.7,286047000.5,N
1528140375.5,286047000.5,N
1528140395.4,286047002.4,N
1528140415.2,286047002.8,N
1528140435.0,286047000.4,N
1528140436.0,286047000.4,N
1528140455.8,286047000.4,N
1528140475.6,286047000.1,N
1528140495.5,286047000.1,N
1528140515.3,286046999.9,N
1528140535.1,286046999.8,N
1528140555.9,286046999.8,N
1528140575.7,286047002.7,N
1528140595.6,286047002.7,N
1528140615.4,286047000.0,N
1528140635.2,286047001.6,N
1528140655.1,286047002.6,N
1528140656.0,286047002.6,N
1528140675.8,286047002.3,N
1528140695.6,286047000.1,N
1528140715.5,286047003.9,Y
1528140735.3,286047004.3,P
1528140755.2,286047003.2,N
1528140775.9,286047001.5,N
1528140795.7,286047004.1,Y
1528140815.6,286047000.2,P
1528140835.4,286047001.2,N
1528140855.3,286047000.3,N
1528140875.1,286047000.3,N
1528140876.0,286047000.3,N
1528140895.8,286047000.7,N
1528140915.7,286047001.0,N
1528140935.5,286047001.0,N
1528140955.3,286046998.2,N
1528140975.2,286046998.5,N
1528140995.0,286046998.7,N
1528140995.9,286046998.7,N
1528141015.8,286046998.7,N
1528141035.6,286047000.6,N
1528141055.4,286047001.1,N
1528141075.3,286046998.3,N
1528141095.1,286047000.7,N
1528141115.8,286047000.1,N
1528141135.7,286047000.9,N
1528141155.5,286047000.6,N
1528141175.4,286046998.1,N
1528141195.2,286046998.1,N
1528141215.0,286046999.0,N
1528141215.9,286046999.0,N
1528141235.8,286047001.1,N
1528141255.6,286047000.4,N
1528141275.4,286047000.9,N
1528141295.3,286047002.7,N
1528141315.1,286047000.9,N
1528141335.9,286046998.8,N
1528141355.7,286046998.3,N
1528141375.5,286046998.6,N
1528141395.4,286046999.0,N
1528141415.2,286047000.6,N
1528141435.0,286047000.7,N
1528141435.9,286047000.7,N
1528141455.8,286047000.2,N
1528141475.6,286047000.6,N
1528141495.5,286047000.2,N
1528141515.3,286047001.1,N
1528141535.1,286046998.7,N
1528141555.9,286046998.3,N
1528141575.7,286046998.7,N
1528141595.5,286047001.2,N
1528141615.4,286047001.0,N
1528141635.2,286046999.9,N
1528141655.1,286047001.1,N
1528141656.0,286047001.1,N
1528141675.8,286047000.7,N
1528141695.6,286047001.1,N
1528141715.5,286046998.5,N
1528141735.3,286046998.6,N
1528141755.1,286047000.9,N
1528141775.9,286047002.7,N
1528141795.7,286047001.0,N
1528141815.6,286047000.3,N
1528141835.4,286047000.7,N
1528141855.2,286046999.9,N
1528141875.1,286046998.4,N
1528141876.0,286046998.4,N
1528141895.8,286047000.0,N
1528141915.6,286047001.1,N
1528141935.5,286046999.4,N
1528141955.3,286046998.3,N
1528141975.2,286046998.3,N
1528141995.9,286046999.8,N
1528142015.7,286047002.7,N
1528142035.6,286047000.5,N
1528142055.4,286047002.6,N
1528142075.2,286047001.4,N
1528142095.1,286047001.9,N
1528142096.0,286047001.9,N
1528142115.8,286047002.3,N
1528142135.7,286047001.6,N
1528142155.5,286047002.0,N
1528142175.3,286047001.8,N
1528142195.2,286047000.1,N
1528142215.0,286047002.2,N
1528142215.9,286047002.2,N
1528142235.8,286047002.0,N
1528142255.6,286047000.7,N
1528142275.4,286046999.9,N
1528142295.3,286047000.4,N
1528142315.1,286047000.6,N
1528142335.8,286047000.9,N
1528142355.7,286047000.2,N
1528142375.5,286047002.2,N
1528142395.4,286047000.3,N
